Location: Palo Alto
(37.4420°N, 122.1420°W)
Time: 18:52:37
(UTC-07:00)

ARGOS - Visible Passes

Search period start: 27 May 2015 00:00
Search period end: 06 June 2015 00:00
Orbit: 821 x 835 km, 98.7° (Epoch: 27 May)

Date Brightness Start Highest point End Pass type
(mag) Time Alt. Az. Time Alt. Az. Time Alt. Az.
27 May 4.6 21:33:37 15° ESE 21:36:28 22° ENE 21:40:38 10° NNE visible
27 May 3.9 23:15:08 38° SW 23:16:27 45° W 23:21:38 10° NNW visible
28 May 5.0 21:15:15 10° E 21:18:10 15° ENE 21:21:20 10° NNE visible
28 May 3.3 22:56:22 46° SSW 22:57:55 68° WSW 23:03:20 10° NNW visible
29 May 5.3 20:59:37 10° ENE 20:59:54 10° ENE 21:00:34 10° NE visible
29 May 3.1 22:37:36 44° SSE 22:39:25 82° ENE 22:44:53 10° NNW visible
30 May 5.6 00:19:07 10° WSW 00:20:26 11° W 00:21:28 10° WNW visible
30 May 3.4 22:18:50 34° SE 22:20:58 55° ENE 22:26:17 10° N visible
31 May 5.2 00:00:21 16° WSW 00:01:39 17° W 00:04:59 10° NW visible
31 May 3.9 22:00:04 24° ESE 22:02:35 37° ENE 22:07:34 10° N visible
31 May 4.7 23:41:35 23° WSW 23:42:57 25° W 23:47:20 10° NW visible
01 Jun 4.4 21:41:19 16° ESE 21:44:13 26° ENE 21:48:41 10° NNE visible
01 Jun 4.2 23:22:50 32° SW 23:24:18 38° W 23:29:19 10° NNW visible
02 Jun 4.9 21:22:33 10° ESE 21:25:53 18° ENE 21:29:32 10° NNE visible
02 Jun 3.5 23:04:04 40° SSW 23:05:44 57° W 23:11:04 10° NNW visible
03 Jun 5.2 21:05:43 10° E 21:07:37 12° ENE 21:09:49 10° NE visible
03 Jun 3.1 22:45:18 42° S 22:47:13 85° WSW 22:52:41 10° NNW visible
04 Jun 3.2 22:26:33 35° SE 22:28:46 66° ENE 22:34:09 10° N visible
05 Jun 5.4 00:08:04 13° WSW 00:09:35 14° W 00:12:12 10° WNW visible
05 Jun 3.7 22:07:47 26° SE 22:10:20 44° ENE 22:15:29 10° N visible
05 Jun 4.9 23:49:18 19° WSW 23:50:50 21° W 23:54:50 10° NW visible
